Location: Ajisawe
(8.4333°N, 4.3833°E)
Time: 12:53:33
(UTC+00:00)

Courier 1B Rocket - Pass Details

Date: 28 April 2021
Orbit: 920 x 1202 km, 28.2° (Epoch: 07 May)

Event Time Altitude Azimuth Distance (km) Brightness Sun altitude
Rises 10:40:40 0° 213° (SSW) 3,818 8.0 74.3°
Reaches altitude 10° 10:44:14 10° 197° (SSW) 2,809 7.4 75.1°
Maximum altitude 10:49:05 21° 151° (SSE) 2,076 7.1 76.2°
Drops below altitude 10° 10:53:43 10° 105° (ESE) 2,678 7.6 77.2°
Sets 10:57:00 0° 89° (E) 3,589 8.1 77.9°
